Regional Weather Roundup
Issued by NWS San Diego, CA

Home | Current Version | Previous Version | Text Only | Print | Product List | Glossary On
Versions: 1 2 3 4 5 6 7 8 9 10 11 12 13 14 15 16 17 18 19 20 21 22 23 24 25 26 27 28 29 30 31 32 33 34 35 36 37 38 39 40 41 42 43 44 45 46 47 48 49 50
000
ASUS46 KSGX 171010
RWRSGX

SAN DIEGO HOURLY WEATHER ROUNDUP
NATIONAL WEATHER SERVICE SAN DIEGO CA
300 AM PDT WED SEP 17 2014

NOTE: "FAIR" INDICATES FEW OR NO CLOUDS BELOW 12,000 FEET WITH NO
SIGNIFICANT WEATHER AND/OR OBSTRUCTIONS TO VISIBILITY.

CAZ042-043-060-061-PZZ750-775-171100-

GREATER SAN DIEGO AREA

CITY           SKY/WX    TMP DP  RH WIND       PRES   REMARKS
LINDBERGH FLD  CLEAR     77  70  79 NW3       29.72S
POINT LOMA       N/A     76  70  81 NW8         N/A
NATIONAL CITY    N/A     80  72  76 CALM      29.71S
IMPERIAL BEACH CLEAR     76  70  82 N3        29.71S
BROWN FIELD    CLEAR     82  63  52 E5        29.72F
MIRAMAR MCAS   PTCLDY    78  66  66 NW6       29.72F
MONTGOMERY FLD CLEAR     80  67  64 NW5       29.73S

$$

NORTH SAN DIEGO COUNTY

CITY           SKY/WX    TMP DP  RH WIND       PRES   REMARKS
CAMP PENDLETON PTCLDY    75  67  76 CALM      29.71S HAZE
OCEANSIDE AP   PTCLDY    75  68  78 CALM      29.70F
OCEANSIDE HBR    N/A     74  71  89 CALM      29.74S
VISTA            N/A     77  69  76 CALM      29.69S
CARLSBAD       CLEAR     78  68  71 CALM      29.71F
DEL MAR          N/A     75  71  88 CALM      29.73F
LA JOLLA SCRIP   N/A     74  72  92 N1        29.68F
FALLBROOK        N/A     80  70  71 CALM      29.71F
ESCONDIDO        N/A     86  66  50 CALM      29.71S
SAN MARCOS       N/A     80  68  67 CALM      29.69S
POWAY            N/A     80  66  63 CALM      29.71S

$$

EAST SAN DIEGO COUNTY

CITY           SKY/WX    TMP DP  RH WIND       PRES   REMARKS
RAMONA         CLEAR     81  60  48 E6        29.78F
SANTEE LAKES     N/A     78  69  75 CALM      29.72S
LA MESA          N/A     82  71  68 CALM      29.64F
JAMUL            N/A     80  64  58 CALM      29.69F
DESCANSO N       N/A     73  60  64 CALM      29.60F
MT. LAGUNA OBS   N/A     60  54  80 N6        29.67R
CAMPO            N/A     71  59  65 E12       29.84S

$$

ORANGE COUNTY AND THE LOS ANGELES BASIN

CITY           SKY/WX    TMP DP  RH WIND       PRES   REMARKS
JOHN WAYNE AP  CLEAR     79  62  56 CALM      29.72S
LAKE FOREST FR   N/A     82  62  50 CALM      29.59S
SANTA ANA        N/A     76  64  65 CALM      29.67S
HUNTINGTON BCH   N/A     73  67  82 CALM      29.74F
LOS ALAMITOS   FAIR      73  65  75 E5        29.72S
FULLERTON      CLEAR     80  59  48 CALM      29.71S
LONG BEACH     CLEAR     79  59  50 N3        29.71F
L.A. AP        CLEAR     74  64  71 W6        29.72F
L.A. DOWNTOWN  CLEAR     78  62  57 CALM      29.71F

$$

THE INLAND EMPIRE

CITY           SKY/WX    TMP DP  RH WIND       PRES   REMARKS
CORONA         CLEAR     77  66  68 W3        29.74F
CHINO          CLEAR     81  67  62 CALM      29.76S
ONTARIO        CLEAR     85  65  51 CALM      29.76F
RIVERSIDE AP   CLEAR     85  66  53 E3        29.76S
RIV CYN CREST    N/A     84  73  69 CALM      29.75S
MORENO VALLEY    N/A     80  68  67 CALM        N/A
MARCH ARB      CLEAR     83  65  55 E6        29.80F
HORSETHIEF CYN   N/A     79  62  55 S1        29.75S
PERRIS           N/A     82  66  58 CALM      29.78S
MENIFEE          N/A     75  71  86 CALM      29.84F
HEMET EAST       N/A     78  60  54 CALM      29.72S
FRENCH VALLEY  FAIR      77  68  73 NE5       29.79F
TEMECULA         N/A     75  69  81 CALM      29.75S

$$

SAN BERNARDINO AND RIVERSIDE COUNTY MOUNTAINS

CITY           SKY/WX    TMP DP  RH WIND       PRES   REMARKS
BIG BEAR AP    CLEAR     50  46  87 CALM      30.19S
ANGELUS OAKS     N/A     62  55  76 CALM      29.69F
PINE COVE        N/A     64  54  69 N1        29.64S

$$

SOUTHERN DESERT INCLUDING THE COACHELLA VALLEY

CITY           SKY/WX    TMP DP  RH WIND       PRES   REMARKS
PALM SPRINGS   CLEAR     87  67  51 CALM      29.77F
THOUSAND PALMS   N/A     83  68  59 NE2       29.72S
PALM DESERT      N/A     85  70  61 CALM        N/A
THERMAL        CLEAR     80  67  64 NW3       29.71F
BLYTHE         CLEAR     81  72  74 N8        29.76F
IMPERIAL AP    CLEAR     84  65  52 CALM      29.72S
EL CENTRO NAS  CLEAR     84  63  49 E3        29.72S
YUMA AZ        PTCLDY    88  64  44 VRB7      29.73F

$$

UPPER DESERT

CITY           SKY/WX    TMP DP  RH WIND       PRES   REMARKS
VICTORVILLE AP CLEAR     73  61  64 S5        29.90F
HESPERIA         N/A     73  59  62 CALM      29.83F
APPLE VALLEY     N/A     70  58  66 CALM      29.98S
PALMDALE       CLEAR     75  51  43 S3        29.87F
LANCASTER      CLEAR     73  33  23 CALM      29.86F
EDWARDS AFB    CLEAR     76  44  31 N3        29.85S
DAGGETT        CLEAR     78  62  57 NE9       29.84F
29 PALMS N     CLEAR     76  63  64 CALM      29.93F
NEEDLES        PTCLDY    81  70  69 SE3       29.79F

$$

REGIONAL REPORTS

CITY           SKY/WX    TMP DP  RH WIND       PRES   REMARKS
SANTA BARBARA  CLEAR     67  59  75 CALM      29.71F
SANDBERG       CLEAR     77  31  18 N12       30.03F
MT. WILSON       N/A     70  48  46 SW5         N/A
LAS VEGAS NV   CLOUDY    82  56  40 S8        29.82R
PHOENIX AZ     CLOUDY    82  67  60 E7        29.81F
TIJUANA        PTCLDY    88  57  35 CALM      29.75S
ENSENADA NW      N/A     75  32  20 NE3       29.67F

$$

OFFSHORE ISLANDS

CITY           SKY/WX    TMP DP  RH WIND       PRES   REMARKS
CATALINA ARPT  CLEAR     84  49  29 SW5       29.81F
SAN NICOLAS IS CLEAR    N/A N/A N/A NW25      29.74S

$$

MARINE AND OFFSHORE BUOY REPORTS

STATION/POSITION SKY/WX   TEMP    WIND        PRES    SWELL
                          AIR SEA DIR/SP/G            HT/PER/DIR
                          (F)     (DEG/KT/KT) (MB)    (FT/S/D)
TANNER BANKS               68 70  320/ 16/ 17 1007.7R   5/230/19
S CLEMENTE BASIN           72 75  310/ 14/ 17 1006.1F   3/240/17
SAN NICOLAS IS.               67                N/A     3/190/18
SO. S. ROSA ISLA           66 67  320/ 19/ 23 1006.7R
W. S. BARBARA CH           62 60  310/ 21/ 25 1006.4F   3/320/19
S. MONICA BASIN            73 74  340/  4/  6 1006.2F   3/190/19
S PEDRO CHANNEL               72                N/A     2/210/18
DANA POINT                    71                N/A     3/200/18
OCEANSIDE OFFSHR              74                N/A     3/210/18
TORREY PINES OTR              74                N/A     3/210/18
LA JOLLA 1                 75 72   CALM  /  1 1006.3S
MISSION BAY BUOY              74                N/A     3/220/18
SAN DIEGO BAY                 77              1006.6R

$$




USA.gov is the U.S. government's official web portal to all federal, state and local government web resources and services.